When you browse on this site, cookies collect data to enhance your experience and personalize the content and advertising you see.
Visit our Privacy Policy to learn more. By continuing to use the site, you agree to this use of cookies and data.
  • In Portugal
  • List of Countries
  • For 7 days
  • Water Temperature
  • Weather Map
  • Weather Widgets
  • user-avatar
    Login

    Hourly Weather Kerns

    Today, 22 September, Sunday

    Time Temperature Precipitation Wind Pressure Humidity
    00:00 +20°C° 0.1 mm 4 mps 763 mmHg 94%
    01:00 +20°C° 0.1 mm 4 mps 763 mmHg 94%
    02:00 +20°C° 0 mm 4 mps 763 mmHg 94%
    03:00 +20°C° 0 mm 4 mps 763 mmHg 94%
    04:00 +19°C° 0 mm 4 mps 763 mmHg 95%
    05:00 +20°C° 0 mm 4 mps 763 mmHg 93%
    06:00 +20°C° 0 mm 4 mps 763 mmHg 92%
    07:00 +21°C° 0 mm 5 mps 763 mmHg 90%
    08:00 +23°C° 0 mm 5 mps 764 mmHg 76%
    09:00 +26°C° 0 mm 5 mps 764 mmHg 64%
    10:00 +29°C° 0 mm 5 mps 764 mmHg 53%
    11:00 +29°C° 0 mm 5 mps 764 mmHg 50%
    12:00 +30°C° 0 mm 5 mps 763 mmHg 47%
    13:00 +32°C° 0 mm 6 mps 763 mmHg 44%
    14:00 +30°C° 0 mm 6 mps 763 mmHg 46%
    15:00 +30°C° 0 mm 6 mps 763 mmHg 47%
    16:00 +29°C° 0 mm 6 mps 762 mmHg 48%
    17:00 +27°C° 0 mm 5 mps 763 mmHg 60%
    18:00 +25°C° 0 mm 5 mps 763 mmHg 71%
    19:00 +22°C° 0 mm 5 mps 763 mmHg 83%
    20:00 +21°C° 0.1 mm 5 mps 764 mmHg 87%
    21:00 +21°C° 0.1 mm 5 mps 764 mmHg 91%
    22:00 +20°C° 0.1 mm 4 mps 765 mmHg 95%
    23:00 +20°C° 0.1 mm 4 mps 764 mmHg 95%

    Tomorrow, 23 September, Monday

    Time Temperature Precipitation Wind Pressure Humidity
    00:00 +21°C° 0.1 mm 4 mps 764 mmHg 96%
    01:00 +21°C° 0.1 mm 5 mps 764 mmHg 96%
    02:00 +21°C° 0.1 mm 4 mps 763 mmHg 96%
    03:00 +21°C° 0.1 mm 4 mps 763 mmHg 96%
    04:00 +20°C° 0.1 mm 4 mps 763 mmHg 96%
    05:00 +21°C° 0.1 mm 4 mps 763 mmHg 95%
    06:00 +21°C° 0.1 mm 4 mps 764 mmHg 94%
    07:00 +21°C° 0.1 mm 5 mps 764 mmHg 93%
    08:00 +22°C° 0.3 mm 5 mps 764 mmHg 90%
    09:00 +23°C° 0.3 mm 5 mps 764 mmHg 88%
    10:00 +24°C° 0.3 mm 6 mps 764 mmHg 85%
    11:00 +26°C° 0.3 mm 6 mps 764 mmHg 80%
    12:00 +27°C° 0.3 mm 6 mps 763 mmHg 74%
    13:00 +27°C° 0.3 mm 6 mps 763 mmHg 68%
    14:00 +28°C° 0.1 mm 6 mps 762 mmHg 65%
    15:00 +28°C° 0.1 mm 6 mps 762 mmHg 62%
    16:00 +28°C° 0.1 mm 6 mps 762 mmHg 60%
    17:00 +26°C° 0 mm 5 mps 763 mmHg 69%
    18:00 +23°C° 0 mm 5 mps 763 mmHg 78%
    19:00 +21°C° 0 mm 4 mps 763 mmHg 88%
    20:00 +20°C° 0 mm 4 mps 764 mmHg 90%
    21:00 +20°C° 0 mm 4 mps 764 mmHg 93%
    22:00 +19°C° 0 mm 4 mps 765 mmHg 95%
    23:00 +19°C° 0 mm 4 mps 764 mmHg 95%

    Day after tomorrow, 24 September, Tuesday

    Time Temperature Precipitation Wind Pressure Humidity
    00:00 +19°C° 0 mm 4 mps 763 mmHg 95%
    01:00 +19°C° 0 mm 4 mps 763 mmHg 95%
    02:00 +20°C° 0.1 mm 4 mps 763 mmHg 95%
    03:00 +20°C° 0.1 mm 4 mps 762 mmHg 95%
    04:00 +20°C° 0.1 mm 4 mps 762 mmHg 95%
    05:00 +21°C° 0.1 mm 4 mps 762 mmHg 94%
    06:00 +22°C° 0.1 mm 5 mps 763 mmHg 93%
    07:00 +22°C° 0.1 mm 5 mps 763 mmHg 92%
    08:00 +25°C° 0.1 mm 5 mps 763 mmHg 84%
    09:00 +26°C° 0.1 mm 6 mps 763 mmHg 76%
    10:00 +28°C° 0.1 mm 6 mps 764 mmHg 68%
    11:00 +29°C° 0.1 mm 6 mps 763 mmHg 64%
    12:00 +29°C° 0.1 mm 6 mps 763 mmHg 60%
    13:00 +30°C° 0.1 mm 6 mps 762 mmHg 57%
    14:00 +29°C° 0.2 mm 6 mps 762 mmHg 59%
    15:00 +29°C° 0.2 mm 6 mps 762 mmHg 62%
    16:00 +28°C° 0.2 mm 6 mps 762 mmHg 64%
    17:00 +26°C° 0.2 mm 6 mps 762 mmHg 74%
    18:00 +25°C° 0.2 mm 5 mps 763 mmHg 83%
    19:00 +22°C° 0.2 mm 5 mps 763 mmHg 92%
    20:00 +21°C° 0.1 mm 5 mps 763 mmHg 94%
    21:00 +21°C° 0.1 mm 5 mps 764 mmHg 95%
    22:00 +21°C° 0.1 mm 5 mps 764 mmHg 97%
    23:00 +21°C° 0.1 mm 5 mps 764 mmHg 97%

    25 September, Wednesday

    Time Temperature Precipitation Wind Pressure Humidity
    00:00 +21°C° 0.1 mm 4 mps 763 mmHg 96%
    01:00 +21°C° 0.1 mm 4 mps 763 mmHg 96%
    02:00 +21°C° 0 mm 4 mps 763 mmHg 97%
    03:00 +20°C° 0 mm 5 mps 762 mmHg 97%
    04:00 +20°C° 0 mm 5 mps 762 mmHg 97%
    05:00 +20°C° 0.1 mm 5 mps 763 mmHg 95%
    06:00 +21°C° 0.1 mm 5 mps 763 mmHg 94%
    07:00 +21°C° 0.1 mm 5 mps 763 mmHg 92%
    08:00 +23°C° 0.1 mm 5 mps 763 mmHg 83%
    09:00 +26°C° 0.1 mm 6 mps 764 mmHg 75%
    10:00 +27°C° 0.1 mm 6 mps 764 mmHg 66%
    11:00 +28°C° 0 mm 6 mps 763 mmHg 60%
    12:00 +29°C° 0 mm 6 mps 763 mmHg 55%
    13:00 +30°C° 0 mm 6 mps 762 mmHg 49%
    14:00 +30°C° 0 mm 6 mps 762 mmHg 49%
    15:00 +29°C° 0 mm 6 mps 762 mmHg 50%
    16:00 +29°C° 0 mm 6 mps 761 mmHg 50%
    17:00 +27°C° 0 mm 6 mps 762 mmHg 61%
    18:00 +24°C° 0 mm 6 mps 763 mmHg 72%
    19:00 +22°C° 0 mm 5 mps 763 mmHg 83%
    20:00 +21°C° 0 mm 5 mps 763 mmHg 86%
    21:00 +21°C° 0 mm 5 mps 764 mmHg 89%
    22:00 +20°C° 0 mm 5 mps 764 mmHg 92%
    23:00 +20°C° 0 mm 5 mps 764 mmHg 93%

    26 September, Thursday

    Time Temperature Precipitation Wind Pressure Humidity
    00:00 +20°C° 0 mm 5 mps 763 mmHg 95%
    01:00 +20°C° 0 mm 5 mps 763 mmHg 96%
    02:00 +20°C° 0.1 mm 5 mps 763 mmHg 96%
    03:00 +20°C° 0.1 mm 5 mps 762 mmHg 96%
    04:00 +20°C° 0.1 mm 5 mps 762 mmHg 96%
    05:00 +20°C° 0.1 mm 5 mps 763 mmHg 95%
    06:00 +21°C° 0.1 mm 5 mps 763 mmHg 93%
    07:00 +21°C° 0.1 mm 5 mps 764 mmHg 92%
    08:00 +25°C° 0 mm 5 mps 764 mmHg 81%
    09:00 +27°C° 0 mm 5 mps 763 mmHg 70%
    10:00 +29°C° 0 mm 5 mps 763 mmHg 59%
    11:00 +29°C° 0 mm 6 mps 763 mmHg 56%
    12:00 +30°C° 0 mm 6 mps 762 mmHg 53%
    13:00 +32°C° 0 mm 6 mps 762 mmHg 50%
    14:00 +30°C° 0 mm 6 mps 761 mmHg 54%
    15:00 +29°C° 0 mm 6 mps 761 mmHg 57%
    16:00 +28°C° 0 mm 6 mps 761 mmHg 61%
    17:00 +27°C° 0.1 mm 6 mps 762 mmHg 70%
    18:00 +25°C° 0.1 mm 5 mps 762 mmHg 80%
    19:00 +22°C° 0.1 mm 5 mps 763 mmHg 89%
    20:00 +21°C° 0.1 mm 5 mps 763 mmHg 91%
    21:00 +21°C° 0.1 mm 5 mps 763 mmHg 93%
    22:00 +20°C° 0.1 mm 4 mps 763 mmHg 95%
    23:00 +20°C° 0 mm 4 mps 763 mmHg 95%

    27 September, Friday

    Time Temperature Precipitation Wind Pressure Humidity
    00:00 +20°C° 0 mm 4 mps 763 mmHg 95%
    01:00 +20°C° 0 mm 4 mps 763 mmHg 95%
    02:00 +20°C° 0 mm 4 mps 762 mmHg 95%
    03:00 +20°C° 0 mm 4 mps 762 mmHg 95%
    04:00 +20°C° 0 mm 4 mps 762 mmHg 94%
    05:00 +20°C° 0 mm 4 mps 762 mmHg 92%
    06:00 +20°C° 0 mm 4 mps 763 mmHg 90%
    07:00 +21°C° 0 mm 4 mps 763 mmHg 87%
    08:00 +23°C° 0 mm 4 mps 763 mmHg 79%
    09:00 +26°C° 0 mm 4 mps 763 mmHg 71%
    10:00 +28°C° 0 mm 5 mps 763 mmHg 63%
    11:00 +29°C° 0 mm 5 mps 763 mmHg 58%
    12:00 +30°C° 0 mm 5 mps 762 mmHg 52%
    13:00 +32°C° 0 mm 5 mps 762 mmHg 47%
    14:00 +32°C° 0 mm 5 mps 761 mmHg 47%
    15:00 +30°C° 0 mm 6 mps 761 mmHg 48%
    16:00 +29°C° 0 mm 6 mps 761 mmHg 48%
    17:00 +27°C° 0 mm 5 mps 761 mmHg 59%
    18:00 +25°C° 0 mm 5 mps 762 mmHg 71%
    19:00 +22°C° 0 mm 4 mps 763 mmHg 82%
    20:00 +21°C° 0 mm 4 mps 763 mmHg 86%
    21:00 +21°C° 0 mm 4 mps 763 mmHg 90%
    22:00 +20°C° 0 mm 4 mps 764 mmHg 94%
    23:00 +20°C° 0 mm 4 mps 763 mmHg 94%
    Show more